DW9145 Weather Reports


time (UTC)temp
C
wind
direction
speed
KPH
gust
KPH
rain 1hr
cm
rain 24hr
cm
rain mn
cm
humidity
%
barometer
mb
20260906162504 25 257 3.2 4.8 0.00 0.00 0.00 64 1020.9
20260906162004 25 275 1.6 4.8 0.00 0.00 0.00 66 1021.0
20260906161504 24 255 1.6 4.8 0.00 0.00 0.00 67 1021.0
20260906161004 24 230 1.6 4.8 0.00 0.00 0.00 68 1020.9
20260906160504 23 250 0.0 4.8 0.00 0.00 0.00 69 1021.0
20260906155504 23 278 3.2 9.7 0.00 0.00 0.00 69 1021.1
20260906155004 23 251 1.6 4.8 0.00 0.00 0.00 69 1021.0
20260906154504 23 293 1.6 9.7 0.00 0.00 0.00 70 1021.0
20260906154004 23 258 3.2 11.3 0.00 0.00 0.00 70 1021.0
20260906153504 22 81 0.0 11.3 0.00 0.00 0.00 73 1021.1
20260906153004 22 250 3.2 8.0 0.00 0.00 0.00 73 1021.2
20260906152504 22 290 0.0 8.0 0.00 0.00 0.00 76 1021.3
20260906152004 22 264 1.6 4.8 0.00 0.00 0.00 78 1021.2
20260906151004 21 253 1.6 3.2 0.00 0.00 0.00 78 1021.4
20260906150004 21 276 1.6 8.0 0.00 0.00 0.00 80 1021.4
20260906145503 21 160 1.6 4.8 0.00 0.00 0.00 82 1021.3
20260906145005 20 300 0.0 8.0 0.00 0.00 0.00 83 1021.3
20260906144504 20 274 3.2 8.0 0.00 0.00 0.00 84 1021.3
20260906144005 20 257 0.0 4.8 0.00 0.00 0.00 84 1021.3
20260906143504 20 254 0.0 3.2 0.00 0.00 0.00 82 1021.2
20260906142504 20 235 1.6 3.2 0.00 0.00 0.00 77 1020.9
20260906142005 19 259 1.6 4.8 0.00 0.00 0.00 74 1020.9
20260906141504 19 279 3.2 4.8 0.00 0.00 0.00 73 1020.8
20260906141004 19 261 1.6 4.8 0.00 0.00 0.00 72 1020.8
20260906140004 18 258 1.6 3.2 0.00 0.00 0.00 72 1020.9
20260906135504 18 256 0.0 3.2 0.00 0.00 0.00 72 1021.0
20260906135004 18 300 0.0 0.0 0.00 0.00 0.00 72 1021.0
20260906134504 18 300 0.0 1.6 0.00 0.00 0.00 72 1020.8
20260906134004 18 300 0.0 0.0 0.00 0.00 0.00 73 1020.8
20260906133004 18 300 0.0 1.6 0.00 0.00 0.00 73 1021.1
20260906132504 17 300 0.0 1.6 0.00 0.00 0.00 73 1020.9
20260906132004 17 300 0.0 0.0 0.00 0.00 0.00 73 1020.9
20260906131504 17 300 0.0 0.0 0.00 0.00 0.00 74 1020.9
20260906131004 17 300 0.0 1.6 0.00 0.00 0.00 74 1020.9
20260906130504 17 300 0.0 0.0 0.00 0.00 0.00 75 1020.9
20260906130004 17 300 0.0 0.0 0.00 0.00 0.00 75 1021.0
20260906125505 17 300 0.0 0.0 0.00 0.00 0.00 75 1021.1
20260906125004 16 300 0.0 0.0 0.00 0.00 0.00 76 1020.9
20260906124004 16 300 0.0 0.0 0.00 0.00 0.00 77 1020.9
20260906123504 16 300 0.0 0.0 0.00 0.00 0.00 78 1020.8
20260906123004 16 300 0.0 0.0 0.00 0.00 0.00 78 1020.8
20260906122504 16 300 0.0 0.0 0.00 0.00 0.00 78 1020.8
20260906122004 16 300 0.0 0.0 0.00 0.00 0.00 78 1020.6
20260906121505 16 300 0.0 0.0 0.00 0.00 0.00 79 1020.6
20260906121004 16 300 0.0 0.0 0.00 0.00 0.00 78 1020.4
20260906120504 16 300 0.0 0.0 0.00 0.00 0.00 79 1020.4
20260906120004 16 300 0.0 0.0 0.00 0.00 0.00 79 1020.4
20260906115004 16 300 0.0 0.0 0.00 0.00 0.00 79 1020.3
20260906114504 16 300 0.0 0.0 0.00 0.00 0.00 79 1020.3
20260906114004 16 300 0.0 0.0 0.00 0.00 0.00 79 1020.1
20260906113504 16 300 0.0 0.0 0.00 0.00 0.00 79 1020.0
20260906112504 16 300 0.0 0.0 0.00 0.00 0.00 80 1019.9
20260906112004 16 300 0.0 0.0 0.00 0.00 0.00 80 1019.8
20260906110504 16 300 0.0 0.0 0.00 0.00 0.00 79 1019.8
20260906110004 17 300 0.0 0.0 0.00 0.00 0.00 79 1019.8
20260906105504 17 300 0.0 0.0 0.00 0.00 0.00 79 1019.8
20260906104004 17 300 0.0 0.0 0.00 0.00 0.00 80 1020.0
20260906103504 17 300 0.0 0.0 0.00 0.00 0.00 80 1020.0
20260906103004 17 300 0.0 0.0 0.00 0.00 0.00 80 1019.9
20260906102504 17 300 0.0 0.0 0.00 0.00 0.00 80 1019.9
20260906101504 17 300 0.0 0.0 0.00 0.00 0.00 80 1019.8
20260906101004 17 300 0.0 0.0 0.00 0.00 0.00 80 1019.7
20260906100504 17 300 0.0 0.0 0.00 0.00 0.00 80 1019.7
20260906100004 17 300 0.0 0.0 0.00 0.00 0.00 79 1019.8
20260906095504 17 300 0.0 0.0 0.00 0.00 0.00 79 1019.8
20260906095005 17 300 0.0 0.0 0.00 0.00 0.00 80 1019.8
20260906094504 17 300 0.0 0.0 0.00 0.00 0.00 80 1019.9
20260906094004 17 300 0.0 0.0 0.00 0.00 0.00 80 1019.8
20260906093504 17 300 0.0 0.0 0.00 0.00 0.00 80 1019.8
20260906093004 17 300 0.0 0.0 0.00 0.00 0.00 80 1019.8
20260906092504 17 300 0.0 0.0 0.00 0.00 0.00 80 1019.8
20260906092004 17 300 0.0 0.0 0.00 0.00 0.00 80 1019.8
20260906091504 17 300 0.0 0.0 0.00 0.00 0.00 80 1019.6
20260906091005 17 300 0.0 0.0 0.00 0.00 0.00 80 1019.7
20260906090503 17 300 0.0 0.0 0.00 0.00 0.00 80 1019.9
20260906090004 17 300 0.0 0.0 0.00 0.00 0.00 80 1019.8
20260906085504 17 300 0.0 0.0 0.00 0.00 0.00 80 1019.8
20260906085004 17 300 0.0 0.0 0.00 0.00 0.00 80 1019.8
20260906084504 17 300 0.0 0.0 0.00 0.00 0.00 80 1019.8
20260906084004 17 300 0.0 0.0 0.00 0.00 0.00 81 1019.8
20260906083504 17 300 0.0 0.0 0.00 0.00 0.00 81 1019.8
20260906083003 17 300 0.0 0.0 0.00 0.00 0.00 81 1019.7
20260906082504 17 300 0.0 0.0 0.00 0.00 0.00 81 1019.5
20260906082004 17 300 0.0 0.0 0.00 0.00 0.00 82 1019.5
20260906081504 17 300 0.0 0.0 0.00 0.00 0.00 82 1019.5
20260906081004 17 300 0.0 0.0 0.00 0.00 0.00 82 1019.5
20260906080504 17 300 0.0 0.0 0.00 0.00 0.00 82 1019.5
20260906080004 17 300 0.0 0.0 0.00 0.00 0.00 82 1019.3
20260906075504 17 300 0.0 0.0 0.00 0.00 0.00 82 1019.3
20260906075004 17 300 0.0 0.0 0.00 0.00 0.00 82 1019.4
20260906074504 17 300 0.0 0.0 0.00 0.00 0.00 82 1019.4
20260906074004 17 300 0.0 0.0 0.00 0.00 0.00 83 1019.4
20260906073504 17 300 0.0 0.0 0.00 0.00 0.00 83 1019.6
20260906073004 17 300 0.0 0.0 0.00 0.00 0.00 83 1019.6
20260906072504 17 300 0.0 0.0 0.00 0.00 0.00 83 1019.6
20260906072004 17 300 0.0 0.0 0.00 0.00 0.00 83 1019.6
20260906071504 17 300 0.0 0.0 0.00 0.00 0.00 83 1019.6
20260906071004 17 300 0.0 0.0 0.00 0.00 0.00 83 1019.6
20260906070504 17 300 0.0 0.0 0.00 0.00 0.00 83 1019.7
20260906065503 17 300 0.0 0.0 0.00 0.00 0.00 83 1019.6
20260906065004 17 300 0.0 0.0 0.00 0.00 0.00 83 1019.6
20260906064504 17 300 0.0 0.0 0.00 0.00 0.00 83 1019.6
20260906064004 17 300 0.0 0.0 0.00 0.00 0.00 83 1019.8
20260906063504 17 300 0.0 0.0 0.00 0.00 0.00 83 1019.8
20260906063004 17 300 0.0 0.0 0.00 0.00 0.00 83 1019.9
20260906062504 17 300 0.0 0.0 0.00 0.00 0.00 83 1019.9
20260906062004 17 300 0.0 0.0 0.00 0.00 0.00 83 1019.9
20260906061504 17 300 0.0 0.0 0.00 0.00 0.00 83 1019.9
20260906060004 17 300 0.0 0.0 0.00 0.00 0.00 83 1019.6
20260906055503 17 300 0.0 0.0 0.00 0.00 0.00 83 1019.8
20260906055004 17 300 0.0 0.0 0.00 0.00 0.00 83 1019.8
20260906054504 18 300 0.0 0.0 0.00 0.00 0.00 83 1019.8
20260906054004 18 300 0.0 0.0 0.00 0.00 0.00 83 1019.6
20260906053004 18 300 0.0 0.0 0.00 0.00 0.00 83 1019.3
20260906052504 18 300 0.0 0.0 0.00 0.00 0.00 83 1019.3
20260906051004 18 300 0.0 0.0 0.00 0.00 0.00 83 1019.6
20260906050504 18 300 0.0 0.0 0.00 0.00 0.00 83 1019.5
20260906050004 18 300 0.0 0.0 0.00 0.00 0.00 84 1019.6
20260906045504 18 300 0.0 0.0 0.00 0.00 0.00 84 1019.6
20260906045004 18 300 0.0 0.0 0.00 0.00 0.00 84 1019.6
20260906043504 18 300 0.0 0.0 0.00 0.00 0.00 84 1019.6
20260906043004 18 300 0.0 0.0 0.00 0.00 0.00 84 1019.4
20260906042504 18 300 0.0 0.0 0.00 0.00 0.00 84 1019.5
20260906042004 18 300 0.0 0.0 0.00 0.00 0.00 84 1019.6
20260906041004 18 300 0.0 0.0 0.00 0.00 0.00 84 1019.5
20260906040504 18 300 0.0 0.0 0.00 0.00 0.00 84 1019.5
20260906040004 18 300 0.0 0.0 0.00 0.00 0.00 84 1019.7
20260906035504 18 300 0.0 0.0 0.00 0.00 0.00 84 1019.7
20260906034504 18 300 0.0 0.0 0.00 0.00 0.00 84 1019.7
20260906033004 18 300 0.0 0.0 0.00 0.00 0.00 84 1019.2
20260906032504 18 300 0.0 0.0 0.00 0.00 0.00 84 1019.1
20260906032004 18 300 0.0 0.0 0.00 0.00 0.00 84 1019.0
20260906031004 18 300 0.0 0.0 0.00 0.00 0.00 83 1018.9
20260906030504 18 300 0.0 0.0 0.00 0.00 0.00 83 1018.8
20260906030004 18 300 0.0 0.0 0.00 0.00 0.00 84 1018.8
20260906025504 18 300 0.0 0.0 0.00 0.00 0.00 84 1018.5
20260906025004 18 300 0.0 0.0 0.00 0.00 0.00 84 1018.3
20260906024504 18 300 0.0 1.6 0.00 0.00 0.00 84 1018.2
20260906024004 18 300 0.0 0.0 0.00 0.00 0.00 84 1018.1
20260906022504 19 300 0.0 0.0 0.00 0.00 0.00 84 1018.0
20260906022004 19 300 0.0 0.0 0.00 0.00 0.00 84 1018.0
20260906021504 19 300 0.0 0.0 0.00 0.00 0.00 84 1017.9
20260906021004 19 300 0.0 0.0 0.00 0.00 0.00 84 1017.8
20260906020504 19 300 0.0 0.0 0.00 0.00 0.00 84 1017.9
20260906020004 19 300 0.0 0.0 0.00 0.00 0.00 84 1017.9
20260906015504 19 301 0.0 0.0 0.00 0.00 0.00 84 1017.8
20260906015004 19 301 0.0 0.0 0.00 0.00 0.00 83 1017.8
20260906014503 20 301 0.0 0.0 0.00 0.00 0.00 83 1017.8
20260906014006 20 301 0.0 0.0 0.00 0.00 0.00 83 1017.7
20260906013505 20 301 0.0 0.0 0.00 0.00 0.00 83 1017.7
20260906013005 20 301 0.0 0.0 0.00 0.00 0.00 83 1017.6
20260906012505 20 301 0.0 0.0 0.00 0.00 0.00 82 1017.6
20260906012005 20 301 0.0 0.0 0.00 0.00 0.00 82 1017.7
20260906011505 20 301 0.0 0.0 0.00 0.00 0.00 82 1017.7
20260906011005 21 301 0.0 0.0 0.00 0.00 0.00 82 1017.6
20260906010505 21 301 0.0 0.0 0.00 0.00 0.00 81 1017.7
20260906005505 21 301 0.0 0.0 0.00 0.00 0.00 80 1017.7
20260906005005 21 301 0.0 0.0 0.00 0.00 0.00 80 1017.8
20260906004006 22 301 0.0 0.0 0.00 0.00 0.00 80 1017.9
20260906003505 22 301 0.0 0.0 0.00 0.00 0.00 79 1017.9
20260906003005 22 301 0.0 0.0 0.00 0.00 0.00 79 1017.9
20260906002505 22 301 0.0 0.0 0.00 0.00 0.00 79 1017.8
20260906001005 23 301 0.0 0.0 0.00 0.00 0.00 78 1017.8
20260906000505 23 301 0.0 0.0 0.00 0.00 0.00 78 1017.7
20260905235505 23 301 0.0 0.0 0.00 0.00 0.00 78 1018.0
20260905235005 23 301 0.0 0.0 0.00 0.00 0.00 78 1017.9
20260905234005 23 301 0.0 0.0 0.00 0.00 0.00 77 1017.8
20260905233505 23 301 0.0 0.0 0.00 0.00 0.00 77 1017.7
20260905233005 24 301 0.0 0.0 0.00 0.00 0.00 77 1017.7
20260905232505 24 301 0.0 1.6 0.00 0.00 0.00 76 1017.8
20260905232005 24 301 0.0 3.2 0.00 0.00 0.00 76 1017.9
20260905231505 24 301 0.0 1.6 0.00 0.00 0.00 76 1017.9
20260905231005 24 300 0.0 0.0 0.00 0.00 0.00 75 1017.9
20260905230505 24 300 0.0 1.6 0.00 0.00 0.00 75 1018.1
20260905230005 24 300 0.0 3.2 0.00 0.00 0.00 75 1018.1
20260905225505 24 301 0.0 3.2 0.00 0.00 0.00 74 1018.2
20260905225005 25 277 0.0 3.2 0.00 0.00 0.00 74 1018.0
20260905224505 25 277 0.0 3.2 0.00 0.00 0.00 74 1018.1
20260905224005 25 277 0.0 3.2 0.00 0.00 0.00 73 1017.9
20260905223505 25 277 0.0 4.8 0.00 0.00 0.00 73 1017.9
20260905222505 25 277 0.0 4.8 0.00 0.00 0.00 72 1017.9
20260905222005 25 258 1.6 4.8 0.00 0.00 0.00 72 1018.0
20260905221505 26 249 1.6 3.2 0.00 0.00 0.00 71 1018.1
20260905220505 26 243 0.0 3.2 0.00 0.00 0.00 70 1018.1
20260905220004 26 238 0.0 1.6 0.00 0.00 0.00 70 1018.1
20260905215505 26 238 1.6 3.2 0.00 0.00 0.00 70 1018.1
20260905214505 26 283 1.6 3.2 0.00 0.00 0.00 71 1018.3
20260905214005 26 22 0.0 4.8 0.00 0.00 0.00 71 1018.4
20260905213505 26 229 3.2 8.0 0.00 0.00 0.00 71 1018.4
20260905213005 25 190 1.6 4.8 0.00 0.00 0.00 72 1018.5
20260905212504 25 209 1.6 4.8 0.00 0.00 0.00 72 1018.5
20260905212005 25 229 1.6 3.2 0.00 0.00 0.00 74 1018.5
20260905211505 25 227 1.6 4.8 0.00 0.00 0.00 73 1018.4
20260905211005 25 227 3.2 4.8 0.00 0.00 0.00 73 1018.5
20260905210505 25 199 0.0 4.8 0.00 0.00 0.00 74 1018.7
20260905210005 25 122 0.0 3.2 0.00 0.00 0.00 73 1018.8
20260905204005 25 238 3.2 8.0 0.00 0.00 0.00 73 1018.8
20260905203505 25 264 0.0 3.2 0.00 0.00 0.00 74 1018.7
20260905203005 24 264 1.6 4.8 0.00 0.00 0.00 75 1018.7
20260905202005 23 303 1.6 4.8 0.00 0.00 0.00 77 1018.9
20260905201505 23 311 0.0 4.8 0.00 0.00 0.00 77 1018.9
20260905200504 23 314 0.0 1.6 0.00 0.00 0.00 78 1018.9
20260905200005 23 317 0.0 0.0 0.00 0.00 0.00 79 1018.9
20260905195505 23 317 0.0 0.0 0.00 0.00 0.00 78 1018.9
20260905195005 23 317 1.6 3.2 0.00 0.00 0.00 77 1018.9
20260905194505 23 321 0.0 1.6 0.00 0.00 0.00 78 1018.9
20260905193505 23 321 0.0 1.6 0.00 0.00 0.00 79 1018.8
20260905193005 23 321 0.0 1.6 0.00 0.00 0.00 80 1018.7
20260905192505 23 325 0.0 1.6 0.00 0.00 0.00 79 1018.7
20260905192005 23 325 0.0 1.6 0.00 0.00 0.00 79 1018.7
20260905191505 23 344 0.0 0.0 0.00 0.00 0.00 80 1018.8
20260905190505 22 344 0.0 0.0 0.00 0.00 0.00 80 1018.8
20260905190004 22 344 0.0 0.0 0.00 0.00 0.00 80 1018.8
20260905185505 22 344 0.0 0.0 0.00 0.00 0.00 81 1018.8
20260905185005 22 344 0.0 0.0 0.00 0.00 0.00 81 1018.8
20260905184504 22 344 0.0 1.6 0.00 0.00 0.00 81 1018.8
20260905184005 22 344 0.0 1.6 0.00 0.00 0.00 81 1018.9
20260905183505 22 344 0.0 0.0 0.00 0.00 0.00 81 1019.1
20260905183005 22 344 0.0 0.0 0.00 0.00 0.00 81 1019.2
20260905182505 22 344 0.0 1.6 0.00 0.00 0.00 81 1019.2
20260905182005 22 344 0.0 0.0 0.00 0.00 0.00 81 1019.2
20260905181005 22 344 0.0 0.0 0.00 0.00 0.00 81 1019.3
20260905180505 22 344 0.0 0.0 0.00 0.00 0.00 82 1019.2
20260905180005 22 344 0.0 0.0 0.00 0.00 0.00 82 1019.2
20260905175505 22 344 0.0 0.0 0.00 0.00 0.00 82 1019.4
20260905175005 22 344 0.0 0.0 0.00 0.00 0.00 82 1019.4
20260905174505 22 344 0.0 1.6 0.00 0.00 0.00 82 1019.4
20260905174005 22 344 0.0 3.2 0.00 0.00 0.00 82 1019.4
20260905173505 21 344 0.0 4.8 0.00 0.00 0.00 82 1019.5
20260905173005 22 32 0.0 3.2 0.00 0.00 0.00 82 1019.5
20260905172505 22 280 0.0 3.2 0.00 0.00 0.00 82 1019.5
20260905172005 22 278 0.0 0.0 0.00 0.00 0.00 83 1019.5
20260905171504 21 278 0.0 1.6 0.00 0.00 0.00 83 1019.3
20260905171005 21 278 0.0 0.0 0.00 0.00 0.00 83 1019.3
20260905170505 21 278 0.0 0.0 0.00 0.00 0.00 83 1019.3
20260905170005 21 278 0.0 0.0 0.00 0.00 0.00 83 1019.4
20260905165505 21 278 0.0 0.0 0.00 0.00 0.00 83 1019.6
20260905165005 21 278 0.0 0.0 0.00 0.00 0.00 83 1019.6
20260905164504 21 278 0.0 0.0 0.00 0.00 0.00 83 1019.7
20260905164005 21 278 0.0 0.0 0.00 0.00 0.00 83 1019.6
20260905163505 21 278 0.0 1.6 0.00 0.00 0.00 84 1019.6
20260905163005 21 277 0.0 1.6 0.00 0.00 0.00 84 1019.5